Regional Weather Roundup
Issued by NWS Cleveland, OH

Home | Current Version | Previous Version | Graphics & Text | Print | Product List | Glossary On
Versions: 1 2 3 4 5 6 7 8 9 10 11 12 13 14 15 16 17 18 19 20 21 22 23 24 25 26 27 28 29 30 31 32 33 34 35 36 37 38 39 40 41 42 43 44 45 46 47 48 49 50
000
ASUS41 KCLE 201400
RWRCLE
OHIO REGIONAL WEATHER ROUNDUP
NATIONAL WEATHER SERVICE WILMINGTON, OH
1000 AM EDT SUN AUG 20 2017

NOTE: "FAIR" INDICATES FEW OR NO CLOUDS BELOW 12,000 FEET WITH NO
SIGNIFICANT WEATHER AND/OR OBSTRUCTIONS TO VISIBILITY.

OHZ001>008-015>018-024>027-034-035-043-044-201500-
   NORTHWEST OHIO

CITY           SKY/WX    TMP DP  RH WIND       PRES   REMARKS
DEFIANCE       FAIR      72  63  73 S5        30.10S
FINDLAY        FAIR      74  63  68 SE7       30.10S
TOLEDO EXPRESS FAIR      72  64  76 SW5       30.10R
TOLEDO EXEC    FAIR      73  65  75 S6        30.11S
LIMA           FAIR      75  64  68 SE8       30.10F
$$

OHZ009>014-019>023-028>033-038-089-201500-
   NORTHEAST OHIO

CITY           SKY/WX    TMP DP  RH WIND       PRES   REMARKS
CLE-HOPKINS    FAIR      77  63  61 SW8       30.14R
CLE-LAKEFRONT  FAIR      76  61  59 S8        30.11R
CUY CO. ARPT   SUNNY     77  63  61 SW9       30.13R
LORAIN-ELYRIA    N/A    N/A N/A N/A MISG      30.14R
ASHTABULA      FAIR      71  63  75 SW7       30.14R
AKRON-CANTON   FAIR      74  60  61 S5        30.14R
WOOSTER        NOT AVBL
MANSFIELD      FAIR      73  63  70 SE9       30.14R
YOUNGSTOWN     FAIR      71  60  68 S7        30.14R
$$

OHZ042-051>053-060>062-070>072-077>081-201500-
  SOUTHWEST OHIO

CITY           SKY/WX    TMP DP  RH WIND       PRES   REMARKS
CINC-COVINGTON FAIR      78  71  79 S7        30.09S
CINC-LUNKEN    FAIR      77  71  82 SW5       30.09R
HAMILTON       FAIR      78  70  76 CALM      30.09S
DAYTON         NOT AVBL
WRIGHT-PAT AFB FAIR      77  68  73 SE3       30.10R
DAYTON GENERAL FAIR      76  66  71 S7        30.09S
WILMINGTON     FAIR      75  71  87 SE5       30.10R
$$

OHZ036-037-039>041-045>050-054>059-063>069-073>076-082>088-201500-
  CENTRAL AND SOUTHEAST OHIO

CITY           SKY/WX    TMP DP  RH WIND       PRES   REMARKS
COLUMBUS       FAIR      75  66  73 SE3       30.12R
OSU AIRPORT    PTSUNNY   73  66  78 SE8       30.12R
BOLTON FIELD   MOSUNNY   73  66  78 SE5       30.13R
RICKENBACK AFB NOT AVBL
NEWARK         FAIR      67  65  93 CALM      30.13R
MARION         FAIR      74  64  71 S7        30.13R
LANCASTER      FAIR      73  66  78 SE8       30.13R
ZANESVILLE     FAIR      70  64  81 CALM      30.13S
NEW PHILLY     FAIR      69  66  90 VRB5      30.14S
$$



USA.gov is the U.S. government's official web portal to all federal, state and local government web resources and services.